Regional Weather Roundup
Issued by NWS

Home | Current Version | Previous Version | Text Only | Print | Product List | Glossary On
Versions: 1 2 3 4 5 6 7 8 9 10 11 12 13 14 15 16 17 18 19 20 21 22 23 24 25 26 27 28 29 30 31 32 33 34 35 36 37 38 39 40 41 42 43 44 45 46 47 48 49 50
000
ASUS45 KABQ 232110
RWRNM
NEW MEXICO REGIONAL WEATHER ROUNDUP
NATIONAL WEATHER SERVICE ALBUQUERQUE NM
300 PM MDT TUE AUG 23 2016

NOTE: "FAIR" MEANS FEW OR NO CLOUDS BELOW 12,000 FEET AGL WITH NO
       SIGNIFICANT WEATHER OR OBSTRUCTIONS TO VISION.

      THIS PRODUCT IS RELEASED AS TWO VERSIONS.  ONE VERSION NEAR
      THE TOP OF THE HOUR CONTAINING PRELIMINARY DATA FROM ALBUQUERQUE
      AND OTHER STATIONS.  A FINAL VERSION WITH ADDITIONAL DATA IS
      ISSUED ABOUT 10 MINUTES AFTER THE HOUR.

NMZ501-503-504-510>518-232200-
NORTHWEST PLATEAU/NORTHCENTRAL MOUNTAINS

CITY           SKY/WX    TMP DP  RH WIND       PRES   REMARKS
FARMINGTON     TSTM      63  55  75 W12       30.19R
LOS ALAMOS     FAIR      71  49  46 SE9       30.27F
SANTA FE       FAIR      74  45  35 W13       30.21F
TAOS           PTSUNNY   73  45  35 S16       30.24F
ANGEL FIRE     FAIR      67  44  42 W14G20    30.33F

$$
NMZ402-403-502-505>509-232200-
WESTCENTRAL MOUNTAINS/SOUTHWEST MOUNTAINS

CITY           SKY/WX    TMP DP  RH WIND       PRES   REMARKS
GALLUP         FAIR      63  50  62 SW14      30.28F
GRANTS         FAIR      74  41  30 W13       30.28F
SILVER CITY    FAIR      82  43  25 W15G31    30.20F

$$
NMZ407-409-411-412-232200-
SOUTHERN DESERTS

CITY           SKY/WX    TMP DP  RH WIND       PRES   REMARKS
LORDSBURG      PTSUNNY   88  45  22 W20G29    30.13F
DEMING         PTSUNNY   90  50  25 W12G24    30.11F
LAS CRUCES     CLOUDY    85  52  31 CALM      30.12F
HOLLOMAN AFB   FAIR      89  54  30 W7        30.06F
ALAMOGORDO     PTSUNNY   84  57  39 S12       30.10S
T OR C         FAIR      86  48  26 SW7G16    30.11F

$$
NMZ519>523-232200-
CENTRAL VALLEYS/CENTRAL HIGHLANDS

CITY           SKY/WX    TMP DP  RH WIND       PRES   REMARKS
ALBUQUERQUE    FAIR      77  48  35 W8        30.18F
DOUBLE EAGLE   PTSUNNY   79  48  34 SW10G17   30.22F
MORIARTY ARPT  FAIR      78  35  20 W17G25    30.22F
CLINES CORNERS FAIR      76  39  26 W21G30    30.26F
BELEN          FAIR      82  47  28 NW15G23   30.16F
SOCORRO        FAIR      90  33  13 W7        30.10F

$$
NMZ524>526-539-540-232200-
SOUTHCENTRAL MOUNTAINS

CITY           SKY/WX    TMP DP  RH WIND       PRES   REMARKS
RUIDOSO          N/A     75  46  35 SW14G21   30.29S

$$
NMZ527>531-232200-
NORTHEAST HIGHLANDS/NORTHEAST PLAINS

CITY           SKY/WX    TMP DP  RH WIND       PRES   REMARKS
LAS VEGAS      FAIR      79  38  22 SW20G37   30.21F
RATON          FAIR      84  37  18 W7        30.10F
CLAYTON        FAIR      88  47  24 W14G22    30.03F

$$
NMZ532>537-232200-
EASTCENTRAL PLAINS

CITY           SKY/WX    TMP DP  RH WIND       PRES   REMARKS
TUCUMCARI      FAIR      94  43  17 W17G26    30.00F
CANNON AFB     CLOUDY    90  47  22 W17G24    30.05F
CLOVIS AIRPORT FAIR      91  50  24 W17G24    30.05F

$$
NMZ028-029-538-232200-
SOUTHEAST PLAINS

CITY           SKY/WX    TMP DP  RH WIND       PRES   REMARKS
ROSWELL        FAIR      89  58  34 SW8G16    30.04F
ARTESIA        FAIR      88  66  48 S17       30.05F
CARLSBAD       FAIR      88  64  44 N9        30.02F
HOBBS          MOSUNNY   90  57  33 S17G24    30.07F


$$



USA.gov is the U.S. government's official web portal to all federal, state and local government web resources and services.